Probability
58 45 52 71 61 35 0 3 0 3 0 0 0 0 3 0 6 6 13 10 13 26 23 35 42 32 26 19 19 26 29 29 29 29 29 23 29 26 29 29 29 26 23 29 32 32 32 26 26
45 45 45 61 32 0 0 3 0 0 0 0 0 0 3 0 0 10 13 10 16 23 29 26 29 19 19 19 23 29 26 19 23 32 29 26 26 26 29 29 26 26 19 26 32 29 29 26 26
35 26 42 42 6 3 0 0 0 0 0 0 0 0 0 0 0 6 13 10 16 26 26 26 26 19 16 16 19 19 26 19 19 29 29 32 32 26 29 29 26 26 29 23 26 29 29 26 26
42 45 39 16 0 0 0 0 0 0 0 0 0 0 0 0 0 6 10 6 13 19 16 23 23 19 19 13 16 19 19 23 26 26 26 35 32 32 32 26 23 23 19 23 26 26 23 19 16
39 48 16 10 0 0 0 0 0 0 0 0 0 3 6 0 3 6 10 10 13 16 16 13 19 19 23 19 19 19 23 23 29 29 26 26 26 26 23 19 16 10 10 10 23 23 3 3 10
55 35 16 0 0 0 0 0 0 0 0 0 0 0 6 3 3 0 3 13 13 16 16 19 19 23 19 13 19 16 19 23 19 19 19 19 16 16 16 13 10 6 6 10 10 6 0 3 6
35 23 6 0 0 0 0 0 0 0 0 0 0 3 3 13 13 6 0 3 6 16 16 16 13 16 16 16 16 16 16 16 16 16 16 16 13 10 10 10 3 0 3 3 3 6 3 3 3
32 19 0 0 0 0 0 0 0 0 0 0 0 0 3 16 10 10 6 6 13 13 10 10 6 6 3 6 16 16 13 13 13 6 10 10 13 10 10 10 6 3 3 6 0 6 3 6 6
16 13 3 0 0 0 0 0 0 0 0 0 0 0 6 13 10 16 19 16 13 10 10 10 10 6 3 3 0 13 10 3 3 6 10 3 3 0 6 10 10 3 0 3 3 3 6 13 10
13 10 0 0 0 0 0 0 0 0 0 0 0 3 6 6 10 10 16 13 10 3 3 3 10 6 3 3 3 3 0 0 0 0 0 0 0 0 0 3 13 6 0 0 3 13 10 6 0
3 6 0 0 0 0 0 0 0 0 0 0 3 3 6 6 6 10 6 10 13 6 6 6 3 3 3 3 3 3 3 0 0 0 0 0 0 0 0 0 3 0 0 0 6 3 0 0 0
0 0 0 0 0 0 0 0 0 0 0 0 0 3 10 6 6 6 10 6 13 10 6 10 6 3 3 3 3 3 3 3 0 0 0 0 0 0 0 0 0 0 0 0 0 0 0 0 0
0 0 0 0 0 0 0 0 0 0 0 0 0 0 3 6 6 3 3 6 10 13 10 3 10 3 3 3 3 0 3 0 0 0 0 0 0 0 0 0 0 0 0 0 0 0 0 0 0
0 0 0 0 0 0 0 0 0 0 0 0 0 0 0 0 0 0 0 3 6 10 13 10 6 6 3 3 3 3 0 0 0 0 0 0 0 0 0 3 3 3 0 0 0 0 0 0 0
0 0 0 0 0 0 0 0 0 0 0 0 0 0 0 0 0 0 0 0 6 6 10 3 3 0 0 3 3 3 3 0 0 0 0 0 0 0 3 3 0 0 0 0 0 0 0 0 0
0 0 0 0 0 0 0 0 0 0 0 0 0 0 3 0 0 0 0 0 3 6 6 3 3 3 0 0 3 3 3 3 3 0 0 0 0 0 0 0 0 0 0 0 0 0 0 0 0
0 0 0 0 0 0 0 0 0 0 0 0 3 0 3 0 0 0 0 0 3 6 6 3 3 3 0 0 0 0 0 0 0 0 3 0 0 0 0 0 0 0 0 0 0 0 0 0 0
0 0 0 0 0 0 0 0 0 0 0 0 0 3 0 0 0 0 0 3 3 3 6 3 3 6 3 3 0 0 0 0 0 0 0 0 0 0 0 0 0 0 0 0 0 0 0 0 0
0 0 0 0 0 0 0 0 0 0 0 0 0 0 3 6 3 0 0 3 3 3 3 3 3 6 6 3 6 3 3 0 0 0 0 0 0 0 0 0 0 0 0 0 0 0 0 0 0
0 0 0 0 0 0 0 0 0 0 0 0 0 0 0 3 3 3 0 0 3 3 3 6 3 3 6 6 6 6 3 6 0 3 0 0 0 0 0 0 0 0 0 0 0 0 0 0 0
0 0 0 0 0 0 0 0 0 0 0 0 0 0 0 3 0 3 3 0 3 3 3 3 3 3 3 6 6 3 3 3 3 3 0 0 0 0 0 0 0 0 0 0 0 0 0 0 0
0 0 0 0 0 0 0 0 0 0 0 0 0 0 0 0 0 3 6 3 0 3 3 3 3 3 3 3 6 3 3 3 3 3 6 3 3 3 3 3 3 0 0 0 0 0 0 0 0
0 0 0 0 0 0 0 0 0 0 0 0 0 0 0 0 0 3 6 10 3 3 6 3 6 3 3 3 3 10 6 6 6 6 6 6 3 3 3 3 3 3 3 0 0 0 0 0 0
0 0 0 0 0 0 0 0 0 0 0 0 0 0 0 0 0 0 3 10 6 3 3 3 3 3 3 3 6 3 3 6 6 6 6 3 3 0 0 0 0 0 3 3 3 0 0 0 0
0 0 0 0 0 0 0 0 0 0 0 0 0 0 0 3 0 3 3 13 6 6 6 3 6 6 3 3 3 3 6 3 3 0 0 3 3 0 0 0 0 0 0 0 3 3 3 0 0
0 0 0 0 0 0 0 0 0 0 0 0 0 0 0 0 0 0 3 13 10 10 6 3 6 3 6 3 3 3 3 3 3 3 0 0 0 0 0 0 0 0 0 0 0 0 0 0 0
0 0 0 0 0 0 0 0 0 0 0 0 0 0 0 0 0 3 6 13 13 10 6 6 3 3 10 6 6 3 3 0 0 0 0 0 0 0 0 0 0 3 0 0 0 0 0 0 0
0 0 0 0 0 0 0 0 0 0 0 0 0 0 0 0 0 0 10 6 10 6 6 3 3 3 10 6 6 6 3 0 0 0 0 0 0 0 0 0 0 3 3 3 0 0 0 0 0
0 0 0 0 0 0 0 0 0 0 0 0 0 0 0 0 0 3 6 10 6 10 6 6 3 3 6 6 3 6 6 0 0 0 0 0 0 0 0 0 0 0 0 3 3 3 0 0 0
0 0 0 0 0 0 0 0 0 0 0 0 0 0 0 0 3 3 3 3 6 6 10 10 3 3 6 6 6 3 3 0 0 0 0 0 0 0 0 0 0 0 0 0 3 3 0 0 0
Height
5874 5874 5875 5876 5877 5876 5876 5877 5877 5877 5878 5878 5879 5879 5879 5880 5881 5884 5882 5881 5882 5882 5882 5882 5881 5881 5881 5881 5881 5881 5880 5880 5879 5879 5879 5879 5879 5879 5879 5879 5878 5878 5878 5878 5879 5879 5879 5879 5880
5873 5874 5875 5876 5875 5875 5876 5876 5876 5877 5877 5878 5878 5879 5879 5879 5880 5881 5880 5881 5881 5881 5881 5881 5881 5881 5881 5881 5881 5880 5880 5880 5879 5879 5879 5879 5879 5879 5879 5879 5878 5878 5878 5878 5878 5878 5879 5879 5879
5873 5874 5875 5875 5874 5875 5875 5875 5875 5876 5876 5877 5878 5878 5879 5879 5879 5880 5880 5880 5881 5881 5881 5881 5881 5881 5881 5880 5880 5880 5880 5879 5879 5879 5879 5879 5878 5878 5878 5878 5878 5878 5878 5878 5878 5878 5878 5879 5879
5873 5874 5875 5874 5873 5873 5874 5874 5874 5874 5875 5876 5877 5877 5877 5878 5878 5879 5879 5880 5880 5880 5880 5880 5880 5880 5880 5880 5880 5879 5879 5879 5879 5879 5878 5878 5878 5878 5878 5878 5878 5877 5877 5878 5878 5878 5878 5878 5878
5872 5873 5873 5873 5872 5873 5873 5873 5873 5874 5874 5875 5876 5876 5877 5877 5878 5878 5878 5879 5879 5879 5879 5879 5879 5879 5879 5879 5879 5879 5878 5878 5878 5878 5878 5877 5878 5878 5878 5877 5877 5877 5877 5877 5877 5877 5877 5877 5877
5871 5872 5872 5871 5871 5872 5872 5872 5872 5873 5873 5874 5875 5876 5876 5876 5877 5877 5878 5878 5878 5878 5878 5878 5878 5878 5878 5878 5878 5878 5877 5877 5877 5877 5877 5877 5877 5877 5877 5877 5877 5876 5876 5876 5876 5876 5876 5876 5876
5871 5871 5870 5870 5870 5871 5871 5871 5871 5872 5873 5873 5874 5875 5875 5875 5876 5876 5876 5877 5877 5877 5877 5877 5877 5877 5877 5877 5877 5876 5876 5876 5876 5876 5876 5876 5876 5876 5876 5876 5876 5875 5875 5875 5875 5875 5875 5875 5875
5868 5870 5869 5869 5869 5870 5870 5870 5870 5871 5871 5872 5873 5873 5874 5874 5874 5875 5875 5875 5875 5876 5876 5876 5876 5876 5876 5875 5875 5875 5875 5875 5875 5875 5875 5875 5875 5875 5875 5875 5875 5875 5874 5874 5874 5874 5874 5874 5874
5867 5869 5867 5867 5867 5868 5868 5868 5869 5869 5870 5870 5871 5872 5872 5873 5873 5873 5874 5874 5874 5875 5875 5875 5875 5875 5874 5874 5874 5874 5874 5874 5874 5874 5874 5874 5874 5874 5874 5874 5874 5874 5873 5873 5873 5873 5873 5873 5872
5865 5866 5866 5866 5866 5867 5867 5867 5868 5868 5869 5869 5869 5870 5870 5871 5872 5872 5872 5872 5873 5873 5873 5873 5873 5873 5873 5873 5873 5873 5873 5872 5872 5873 5873 5873 5873 5873 5873 5873 5873 5872 5872 5872 5872 5871 5871 5871 5871
5863 5864 5865 5865 5865 5865 5866 5866 5867 5867 5867 5868 5868 5869 5869 5869 5870 5870 5871 5871 5871 5871 5872 5872 5871 5871 5871 5871 5871 5871 5871 5871 5871 5871 5871 5871 5871 5872 5871 5871 5871 5871 5871 5871 5870 5870 5870 5870 5870
5862 5862 5863 5863 5863 5864 5864 5865 5865 5866 5867 5867 5867 5867 5867 5868 5868 5869 5869 5869 5870 5870 5870 5870 5870 5870 5870 5870 5870 5870 5869 5869 5870 5870 5870 5870 5870 5870 5870 5870 5870 5870 5870 5869 5869 5869 5869 5868 5868
5860 5861 5861 5862 5862 5863 5863 5864 5864 5864 5865 5865 5866 5866 5866 5867 5867 5867 5868 5868 5868 5868 5868 5868 5868 5868 5868 5868 5868 5868 5868 5868 5868 5868 5868 5869 5869 5869 5869 5869 5869 5868 5868 5868 5868 5867 5867 5867 5867
5859 5859 5860 5860 5861 5861 5862 5863 5863 5863 5864 5864 5864 5865 5865 5865 5865 5866 5866 5866 5866 5866 5867 5866 5867 5867 5867 5866 5866 5866 5866 5866 5866 5867 5867 5867 5867 5867 5867 5867 5867 5867 5867 5866 5866 5866 5865 5865 5865
5857 5858 5859 5859 5860 5860 5861 5862 5862 5862 5862 5863 5863 5863 5863 5863 5864 5864 5864 5864 5864 5864 5865 5865 5865 5865 5865 5865 5865 5865 5865 5865 5865 5865 5865 5866 5866 5866 5866 5865 5865 5865 5865 5865 5864 5864 5864 5864 5863
5856 5857 5858 5858 5858 5859 5861 5861 5861 5861 5861 5861 5861 5861 5862 5862 5862 5862 5862 5862 5863 5863 5863 5863 5863 5863 5863 5863 5863 5863 5863 5863 5863 5863 5864 5864 5864 5864 5864 5864 5864 5864 5864 5863 5863 5863 5862 5862 5862
5856 5856 5857 5857 5858 5858 5859 5859 5860 5860 5860 5860 5860 5860 5861 5860 5860 5861 5861 5861 5861 5861 5861 5861 5861 5861 5861 5861 5861 5861 5861 5861 5861 5861 5861 5862 5862 5862 5862 5862 5862 5862 5862 5861 5861 5861 5861 5860 5860
5855 5856 5856 5856 5857 5858 5858 5858 5859 5859 5859 5859 5859 5859 5859 5859 5859 5859 5859 5859 5859 5859 5859 5859 5859 5859 5859 5859 5859 5859 5859 5860 5860 5859 5859 5859 5859 5859 5860 5860 5860 5860 5860 5859 5859 5859 5859 5859 5858
5855 5855 5855 5856 5856 5857 5857 5857 5858 5858 5858 5858 5858 5858 5858 5858 5858 5858 5858 5858 5858 5858 5858 5858 5858 5858 5858 5858 5858 5858 5858 5858 5858 5858 5857 5857 5857 5857 5857 5858 5858 5858 5858 5857 5857 5857 5857 5857 5856
5854 5854 5854 5855 5855 5856 5856 5856 5857 5857 5857 5857 5857 5857 5856 5857 5857 5857 5856 5857 5857 5856 5856 5856 5856 5856 5856 5856 5856 5856 5856 5856 5856 5856 5855 5855 5855 5855 5855 5855 5855 5855 5855 5855 5855 5855 5855 5854 5854
5853 5854 5854 5854 5854 5855 5855 5856 5855 5856 5856 5856 5855 5855 5855 5855 5855 5855 5855 5855 5855 5855 5855 5855 5855 5855 5854 5854 5854 5854 5854 5854 5854 5854 5854 5853 5853 5853 5853 5853 5853 5853 5853 5853 5852 5852 5852 5852 5852
5852 5853 5853 5853 5853 5854 5855 5855 5854 5854 5854 5854 5854 5854 5854 5854 5854 5854 5854 5854 5853 5853 5853 5853 5853 5853 5853 5852 5852 5852 5852 5852 5852 5852 5852 5852 5851 5851 5851 5851 5851 5851 5850 5850 5850 5850 5850 5849 5849
5852 5852 5852 5852 5852 5853 5854 5854 5854 5853 5853 5853 5853 5853 5853 5852 5852 5852 5852 5852 5852 5851 5851 5851 5851 5851 5851 5850 5850 5850 5850 5850 5850 5849 5849 5849 5849 5849 5849 5848 5848 5848 5848 5848 5848 5847 5847 5847 5847
5851 5851 5851 5851 5852 5853 5853 5853 5853 5852 5852 5852 5852 5851 5851 5851 5850 5850 5850 5850 5850 5849 5849 5849 5849 5848 5848 5848 5848 5848 5848 5847 5847 5847 5847 5847 5847 5846 5846 5846 5845 5845 5845 5845 5845 5845 5844 5844 5844
5850 5851 5851 5851 5851 5852 5852 5851 5852 5851 5850 5850 5850 5849 5849 5849 5848 5848 5848 5848 5848 5847 5847 5846 5846 5846 5846 5846 5846 5845 5845 5845 5845 5845 5844 5844 5844 5844 5843 5843 5843 5843 5842 5842 5842 5842 5841 5841 5840
5849 5849 5850 5851 5851 5851 5850 5850 5850 5849 5849 5848 5848 5847 5847 5847 5846 5846 5845 5845 5845 5845 5844 5844 5844 5844 5843 5843 5843 5843 5843 5842 5842 5842 5842 5841 5841 5840 5840 5840 5840 5840 5839 5839 5839 5838 5838 5837 5837
5847 5847 5848 5849 5849 5849 5849 5849 5848 5847 5847 5846 5846 5845 5845 5844 5844 5843 5843 5843 5842 5842 5842 5841 5841 5841 5841 5841 5840 5840 5840 5840 5839 5839 5839 5838 5838 5837 5836 5836 5837 5837 5836 5836 5835 5835 5834 5834 5833
5846 5846 5846 5846 5847 5847 5847 5846 5846 5845 5844 5844 5843 5843 5842 5842 5841 5841 5840 5840 5839 5839 5839 5839 5838 5838 5838 5838 5837 5837 5837 5836 5836 5836 5836 5835 5835 5834 5834 5833 5833 5833 5833 5832 5832 5831 5830 5830 5829
5844 5844 5844 5844 5844 5845 5845 5846 5843 5843 5842 5841 5840 5839 5839 5838 5838 5838 5837 5837 5836 5836 5836 5836 5835 5835 5835 5835 5834 5834 5834 5833 5833 5832 5832 5832 5831 5831 5831 5830 5830 5830 5829 5828 5828 5827 5826 5826 5825
5841 5841 5841 5842 5842 5842 5842 5844 5841 5840 5839 5838 5837 5836 5836 5835 5834 5834 5834 5834 5833 5833 5833 5833 5832 5832 5831 5831 5831 5830 5830 5829 5829 5828 5828 5828 5828 5827 5827 5827 5826 5826 5825 5824 5823 5823 5822 5821 5820
Wind_Speed
2 3 3 3 4 4 4 4 3 4 4 4 4 4 3 3 3 4 3 3 3 2 2 2 2 2 1 1 1 1 1 2 2 2 2 1 1 0 0 1 1 1 1 2 2 2 2 1 1
3 3 3 4 5 4 4 4 4 4 4 4 4 4 4 4 4 4 4 3 3 3 3 2 2 2 2 2 2 2 2 2 2 2 2 2 1 1 1 2 1 2 2 2 2 3 2 2 2
4 4 4 5 5 6 6 6 5 5 5 5 5 4 5 5 5 5 5 4 4 4 4 3 3 3 3 3 3 3 3 3 3 3 3 2 2 2 2 2 2 2 2 2 2 2 2 2 2
5 5 5 6 6 6 6 7 6 6 6 6 6 6 5 6 6 6 6 5 5 5 5 5 4 4 4 4 4 4 4 3 4 3 3 3 3 3 3 3 3 2 2 3 3 3 3 3 3
6 6 6 6 6 6 7 7 6 6 6 7 8 7 6 7 7 7 7 6 6 6 6 5 5 5 5 5 5 5 4 4 4 4 4 4 4 4 4 4 4 3 4 4 3 3 4 4 4
7 7 7 7 7 7 7 7 7 7 7 7 8 8 8 7 7 7 7 7 7 6 6 6 6 6 6 6 6 6 5 5 5 4 5 5 4 4 4 4 4 4 4 5 4 4 5 5 5
8 8 8 8 8 8 8 8 8 8 7 7 8 8 7 8 8 8 7 7 7 7 7 7 7 7 7 7 7 6 6 6 6 6 6 6 5 5 4 4 5 4 4 4 5 5 5 5 5
9 8 8 8 8 9 9 9 9 8 8 8 8 9 8 8 7 8 8 8 8 8 7 8 7 8 7 7 7 7 7 6 7 7 7 7 6 5 5 5 4 5 5 5 5 5 6 5 5
9 9 8 8 9 9 9 9 9 10 9 9 10 10 9 8 8 8 8 8 8 8 8 8 8 8 8 7 8 7 7 7 8 8 8 7 7 6 5 5 5 5 5 5 6 6 6 6 6
9 9 8 8 9 8 9 9 9 9 10 10 10 10 9 9 9 9 9 9 9 9 9 9 9 9 8 8 8 8 8 8 8 8 8 7 7 6 6 6 6 6 6 6 6 6 7 7 6
9 9 8 9 9 8 8 8 8 8 8 9 9 9 10 10 10 10 10 10 9 9 9 9 9 9 9 9 9 9 9 8 8 8 8 7 6 6 6 6 6 6 6 6 6 7 7 7 7
8 8 8 8 8 8 8 7 7 8 9 9 9 8 9 9 9 10 10 10 10 9 9 9 9 10 10 9 9 9 9 9 8 8 8 6 6 5 6 6 6 7 7 7 7 7 7 7 7
7 8 8 8 8 7 7 7 7 8 8 8 8 8 9 9 9 9 10 10 9 9 9 9 10 10 10 9 10 10 10 9 8 8 7 7 7 6 6 7 7 8 7 7 7 7 7 7 8
6 7 7 7 7 8 7 7 8 8 8 9 9 9 9 10 9 9 10 10 10 9 10 10 10 10 10 10 10 9 9 8 8 8 8 8 8 7 8 7 7 8 7 7 7 7 7 8 8
6 6 7 7 7 7 8 8 9 8 8 9 9 9 8 8 9 9 9 10 9 9 10 10 10 10 9 10 10 10 10 9 9 9 9 9 8 8 8 7 8 8 8 8 7 7 8 8 8
6 6 7 7 7 7 8 8 8 8 8 8 8 9 8 8 9 8 9 9 9 10 10 11 10 10 10 10 10 10 11 10 10 9 9 9 9 9 9 8 8 9 9 8 8 8 8 8 8
5 5 6 6 7 7 7 7 8 8 8 8 8 8 8 9 9 8 9 9 9 9 9 10 10 9 9 9 10 9 9 9 9 9 9 9 9 10 10 9 9 9 9 9 9 9 9 9 9
4 5 5 6 6 6 6 7 7 8 7 8 8 8 8 8 8 8 8 9 9 9 9 9 9 8 8 9 8 8 7 8 8 8 9 10 10 10 10 10 9 9 10 10 9 9 8 9 9
4 5 6 6 6 6 7 7 7 8 7 7 7 8 7 7 7 8 8 9 9 10 9 9 9 8 8 8 8 8 8 8 9 9 9 9 10 10 10 10 10 10 10 10 10 9 9 10 9
5 5 5 5 5 5 5 6 6 7 6 7 7 7 7 7 8 8 8 8 9 9 9 9 9 8 9 9 8 8 8 9 9 9 9 9 9 10 11 10 10 10 10 10 10 10 10 10 10
5 5 5 5 4 5 6 6 6 6 6 6 7 7 7 8 8 8 9 9 9 9 9 9 9 9 8 8 8 8 9 9 9 9 8 8 9 9 10 10 10 10 10 11 11 11 11 11 11
4 4 4 4 4 4 6 7 7 6 7 7 7 8 8 7 8 8 8 9 9 10 10 10 10 9 9 10 10 10 9 10 9 9 9 9 9 9 10 10 11 11 11 11 11 11 12 12 12
5 5 5 4 5 6 7 8 8 7 8 8 8 9 9 9 9 9 9 9 10 10 11 10 10 10 10 11 11 10 11 11 10 10 9 10 10 10 10 11 11 11 11 11 11 12 12 12 13
5 5 5 5 6 7 8 8 9 9 9 9 10 10 10 10 10 10 10 9 10 10 11 11 11 11 11 11 11 11 11 11 11 10 10 11 11 10 11 11 11 10 10 11 11 12 12 13 13
6 5 5 5 6 7 8 9 9 10 11 11 11 11 11 11 10 10 11 10 11 11 11 12 11 11 11 11 11 11 11 11 11 11 11 11 11 11 11 11 11 11 11 12 12 13 14 14 14
7 7 7 6 6 7 8 10 11 11 12 12 12 12 12 12 12 12 12 12 12 12 11 11 11 11 11 11 11 11 11 11 11 11 11 11 12 12 12 12 12 12 13 13 13 14 14 15 15
7 7 7 7 7 8 9 10 11 12 13 13 13 13 12 12 12 12 12 12 12 12 11 11 11 11 12 12 11 12 12 12 12 12 12 12 12 13 13 13 13 13 13 14 14 15 15 15 15
8 8 7 8 8 8 10 10 11 12 13 14 13 13 13 13 13 13 13 12 12 12 12 11 11 12 12 12 13 13 13 13 14 14 14 13 14 14 13 13 14 14 15 15 15 16 16 16 16
9 10 10 10 10 10 10 11 12 13 14 14 14 14 13 13 13 12 12 13 13 12 12 12 12 13 13 13 13 14 14 14 14 15 14 14 14 14 14 14 14 15 15 15 16 16 16 16 16
10 11 11 11 12 11 11 13 13 14 14 15 15 15 14 14 14 13 12 12 12 12 12 13 13 13 13 14 14 14 14 14 14 15 15 15 15 15 15 15 16 16 17 17 17 17 17 17 17
Wind_Direction
229 242 244 256 255 255 266 267 273 265 238 230 233 237 228 226 234 229 230 223 230 246 262 270 274 291 333 338 311 309 326 335 342 341 329 330 326 346 338 327 287 250 227 213 205 197 200 207 232
243 251 257 263 254 257 270 272 265 247 239 234 235 238 236 233 236 239 239 237 241 247 253 263 267 284 300 311 317 300 303 308 311 315 314 313 301 313 307 308 302 265 248 238 221 222 210 228 248
251 253 260 261 265 266 275 276 262 250 240 237 242 239 240 239 240 244 246 246 251 250 252 262 269 278 284 297 303 308 304 300 301 303 299 297 295 289 290 299 286 277 266 255 242 236 235 242 253
252 251 256 265 272 276 276 273 264 254 244 242 245 249 251 249 244 246 248 249 255 255 258 264 269 268 271 283 293 301 296 295 296 303 301 299 299 302 293 289 281 280 290 283 265 260 257 247 256
247 247 252 263 271 271 274 272 269 266 253 249 250 254 254 255 249 245 248 252 256 257 259 264 270 266 265 273 280 289 291 287 287 291 300 299 293 289 295 286 275 269 278 273 267 266 267 265 263
248 249 254 258 267 270 272 270 263 263 260 264 258 257 254 254 250 250 252 255 255 255 258 265 272 266 265 275 284 285 290 289 291 299 300 299 301 300 294 292 279 278 278 270 273 270 263 265 271
245 249 254 260 260 265 269 272 264 259 263 264 260 257 253 258 255 256 256 258 256 254 254 261 270 270 271 274 278 282 288 291 295 295 293 292 295 297 297 291 281 281 281 281 278 271 270 269 276
248 254 260 262 259 263 269 270 267 264 263 262 260 257 254 256 262 260 258 261 261 258 260 266 270 275 275 275 280 281 286 287 294 292 293 291 288 290 291 285 283 287 285 281 281 280 275 274 276
252 257 260 266 268 268 270 269 269 266 264 262 261 261 258 257 261 261 259 263 262 263 267 271 276 281 278 276 282 284 282 284 289 289 289 286 282 280 283 282 283 284 285 286 285 283 281 278 278
253 262 261 264 272 272 269 270 269 269 267 267 264 262 259 261 261 263 264 265 263 265 269 271 277 282 285 281 279 283 282 289 288 286 285 281 278 280 279 279 280 280 281 284 283 282 283 282 281
256 259 262 267 271 271 267 267 269 272 269 267 265 260 260 262 263 264 267 267 262 266 271 276 279 279 282 284 284 285 285 287 287 287 285 282 281 281 279 280 282 281 281 280 282 286 287 286 285
257 253 259 262 267 272 271 269 271 273 272 272 270 267 271 268 268 267 268 267 267 271 276 282 290 283 282 284 284 285 285 283 286 288 281 280 280 279 276 277 277 277 280 280 282 285 287 287 288
257 252 258 261 264 269 271 268 272 275 275 273 276 276 275 268 268 271 269 272 274 273 277 281 286 288 287 287 286 284 285 285 283 282 279 280 277 278 279 279 281 281 281 280 282 283 284 286 287
261 258 262 266 267 269 270 268 271 273 275 274 274 275 273 270 268 269 272 273 275 277 280 283 283 286 286 286 285 284 284 283 281 281 281 284 281 282 284 285 287 286 284 280 280 280 284 287 288
264 261 268 272 271 268 268 265 266 272 279 280 275 270 269 273 274 274 275 275 278 280 283 284 286 287 287 286 285 282 283 282 279 276 280 281 280 283 286 284 285 285 285 281 280 279 283 287 289
275 272 272 276 274 268 266 267 271 277 282 281 278 273 276 280 280 281 281 277 279 281 285 285 286 288 288 289 288 284 281 283 284 283 284 279 276 276 279 282 285 285 282 278 278 278 284 286 286
283 286 284 280 273 270 269 276 278 284 290 289 282 280 279 283 281 283 284 281 279 282 287 289 288 290 288 289 290 291 286 284 285 288 289 287 284 278 279 284 285 284 281 278 278 279 284 285 286
285 280 279 280 273 268 276 283 286 290 293 294 287 284 284 285 287 289 287 283 282 286 290 293 293 296 296 294 294 295 292 286 283 285 287 287 285 280 279 283 283 283 282 280 279 281 283 285 286
277 272 268 273 272 274 277 282 287 287 293 292 287 286 286 287 288 292 291 286 284 285 287 289 291 294 296 297 294 289 289 289 286 283 283 286 286 283 280 279 281 282 280 278 279 279 282 286 289
275 267 267 268 269 274 282 286 291 289 292 289 285 285 283 286 288 290 292 293 293 292 290 290 293 296 293 293 293 290 290 291 291 290 286 285 283 281 280 280 278 277 273 273 276 278 282 288 289
276 271 272 269 263 271 278 288 288 290 294 292 288 289 286 288 287 290 292 294 294 295 295 294 292 295 297 299 296 293 296 294 292 288 287 286 287 284 282 279 278 276 272 273 277 278 282 287 288
277 274 265 255 263 278 286 290 289 293 295 293 289 289 290 288 289 291 294 295 294 293 294 295 294 296 297 298 294 292 292 293 293 290 286 285 286 283 282 280 278 277 276 276 277 278 283 285 287
275 263 263 271 276 276 281 285 286 293 293 292 291 289 289 289 287 288 292 294 295 295 293 294 295 294 295 295 293 286 286 289 290 288 285 285 285 284 283 282 280 281 279 279 280 282 284 286 287
269 253 263 275 275 270 276 277 282 293 294 294 293 292 288 287 287 287 289 292 294 296 296 295 295 293 293 294 291 287 286 285 285 285 284 286 285 284 284 284 282 282 281 282 282 284 287 288 289
263 260 271 271 272 274 282 281 283 288 289 290 290 290 289 290 288 287 288 290 293 294 294 294 293 292 293 293 291 289 287 285 283 283 284 284 285 285 283 284 282 282 284 284 284 286 289 288 290
260 258 257 262 263 271 279 285 285 282 287 289 289 291 291 290 291 291 291 291 292 292 291 291 290 290 292 291 288 289 287 285 284 284 285 286 283 281 282 283 284 284 284 286 286 287 287 287 288
263 254 253 258 260 262 270 280 283 288 288 290 290 292 292 291 290 291 291 291 292 292 290 289 289 290 290 290 290 288 285 285 285 284 283 285 285 284 282 283 285 286 286 286 287 286 287 288 288
261 258 256 258 257 262 273 279 286 290 290 290 289 289 291 290 289 291 290 289 289 290 289 288 288 289 289 290 289 289 285 285 286 285 282 283 285 283 283 283 285 287 288 287 286 287 288 288 288
265 261 259 260 262 259 261 274 283 287 292 291 288 287 289 290 290 291 290 288 288 287 287 287 289 290 289 288 289 291 288 285 285 285 284 284 285 283 283 282 286 288 288 289 288 289 289 289 289
267 269 265 262 261 266 270 275 284 289 292 291 287 286 286 287 287 288 287 286 286 287 285 287 289 290 290 291 291 292 290 286 287 286 283 284 285 284 285 285 286 288 288 288 289 289 289 290 289